This demonstration page uses our WeatherBlox Daily Observations layout. Learn more.

Hourly Observations for September 12, 2016

Temp ( °F °C ) Dew Point ( °F °C ) Humidity (%) Winds ( mph kmh ) Pressure ( in mb ) Visibility ( mi km ) Precip ( " mm )
12:15 am 00:15 Clear 66 18.8 55 12.7 68 68 S 15 24 29.77 1008 10 16.09344 0 0
12:35 am 00:35 Clear 65 18.5 55 12.8 70 70 S 13 20 29.77 1008 10 16.09344 0 0
12:55 am 00:55 Clear 65 18.1 55 13 72 72 SSE 14 22 29.74 1007 10 16.09344 0 0
1:15 am 01:15 Clear 64 18 56 13.1 73 73 S 13 20 29.74 1007 10 16.09344 0 0
1:35 am 01:35 Clear 64 17.7 56 13.2 75 75 S 14 22 29.74 1007 10 16.09344 0 0
1:55 am 01:55 Clear 63 17.3 56 13.5 79 79 SSE 9 15 29.77 1008 10 16.09344 0 0
2:15 am 02:15 Clear 63 17.2 56 13.6 80 80 SSE 10 17 29.77 1008 10 16.09344 0 0
2:35 am 02:35 Clear 63 17 57 13.9 82 82 S 10 17 29.77 1008 10 16.09344 0 0
2:55 am 02:55 Clear 63 17 57 14 83 83 S 9 15 29.77 1008 10 16.09344 0 0
3:15 am 03:15 Clear 63 17 58 14.3 84 84 S 12 19 29.77 1008 10 16.09344 0 0
3:35 am 03:35 Clear 63 17.2 58 14.5 84 84 S 10 17 29.74 1007 10 16.09344 0 0
3:55 am 03:55 Clear 63 17.2 58 14.7 85 85 S 12 19 29.74 1007 10 16.09344 0 0
4:15 am 04:15 Clear 63 17.2 59 14.8 86 86 S 10 17 29.74 1007 10 16.09344 0 0
4:35 am 04:35 Clear 63 17.2 59 15 87 87 S 10 17 29.74 1007 10 16.09344 0 0
4:55 am 04:55 Clear 63 17.2 59 15 87 87 S 10 17 29.74 1007 10 16.09344 0 0
5:15 am 05:15 Clear 63 17 59 15 88 88 S 10 17 29.74 1007 10 16.09344 0 0
5:35 am 05:35 Clear 63 17 59 15.2 89 89 S 8 13 29.74 1007 10 16.09344 0 0
5:55 am 05:55 Clear 62 16.9 59 15.1 89 89 S 9 15 29.74 1007 10 16.09344 0 0
6:15 am 06:15 Clear 62 16.7 59 15.1 90 90 S 10 17 29.74 1007 10 16.09344 0 0
6:35 am 06:35 Clear 62 16.6 59 15.1 91 91 S 10 17 29.74 1007 10 16.09344 0 0
6:55 am 06:55 Clear 62 16.6 59 15.2 92 92 S 9 15 29.74 1007 10 16.09344 0 0
7:15 am 07:15 Clear 62 16.6 59 15.2 92 92 S 8 13 29.74 1007 10 16.09344 0 0
7:35 am 07:35 Sunny 62 16.6 60 15.3 92 92 S 9 15 29.74 1007 10 16.09344 0 0
7:55 am 07:55 Sunny 63 17 60 15.5 91 91 S 7 11 29.74 1007 10 16.09344 0 0
8:15 am 08:15 Sunny 63 17.1 60 15.7 92 92 S 8 13 29.74 1007 10 16.09344 0 0
8:35 am 08:35 Sunny 64 17.5 61 16 91 91 S 8 13 29.71 1006 10 16.09344 0 0
8:55 am 08:55 Partly Cloudy 65 18.3 62 16.4 89 89 S 15 24 29.71 1006 10 16.09344 0 0
9:15 am 09:15 Partly Cloudy 65 18.6 62 16.5 88 88 SSW 5 7 29.74 1007 10 16.09344 0 0
9:35 am 09:35 Partly Cloudy 66 18.9 62 16.6 87 87 NNW 8 13 29.77 1008 10 16.09344 0 0
9:55 am 09:55 Partly Cloudy 66 18.9 62 16.5 86 86 S 8 13 29.77 1008 10 16.09344 0 0
10:15 am 10:15 Partly Cloudy 67 19.2 62 16.7 86 86 E 3 6 29.74 1007 10 16.09344 0 0
10:35 am 10:35 Mostly Cloudy 67 19.4 62 16.7 84 84 Calm 29.77 1008 10 16.09344 0 0
10:55 am 10:55 Cloudy 67 19.3 62 16.7 85 85 Calm 29.8 1009 10 16.09344 0 0
11:15 am 11:15 Cloudy 66 19 62 16.8 87 87 Calm 29.8 1009 10 16.09344 0 0
11:35 am 11:35 Cloudy 62 16.5 53 11.7 73 73 N 12 19 29.8 1009 10 16.09344 0 0
11:55 am 11:55 Cloudy 62 16.6 53 11.6 73 73 N 12 19 29.83 1010 10 16.09344 0 0
12:15 pm 12:15 Cloudy 62 16.8 53 11.4 71 71 NNE 9 15 29.85 1011 10 16.09344 0 0
12:35 pm 12:35 Cloudy 63 17.1 54 12 72 72 N 9 15 29.83 1010 10 16.09344 0 0
12:55 pm 12:55 Cloudy 63 17.3 54 12 71 71 N 3 6 29.85 1011 10 16.09344 0 0
1:15 pm 13:15 Cloudy 64 17.9 54 12.3 70 70 N 7 11 29.85 1011 10 16.09344 0 0
1:35 pm 13:35 Cloudy 65 18.6 54 12.3 67 67 N 10 17 29.83 1010 10 16.09344 0 0
1:55 pm 13:55 Cloudy with Nearby Thunderstorms 66 18.7 53 11.6 64 64 NNW 13 20 29.83 1010 10 16.09344 0 0
2:15 pm 14:15 Cloudy 65 18.5 53 11.4 63 63 N 14 22 29.85 1011 10 16.09344 0 0
2:35 pm 14:35 Cloudy with Nearby Thunderstorms 65 18.6 53 11.5 64 64 NNE 7 11 29.88 1012 10 16.09344 0 0
2:55 pm 14:55 Cloudy 66 19 54 12 64 64 NNE 8 13 29.85 1011 10 16.09344 0 0
3:15 pm 15:15 Cloudy 65 18.6 54 12.1 66 66 N 12 19 29.88 1012 10 16.09344 0 0
3:35 pm 15:35 Cloudy 66 19 54 12.2 65 65 N 15 24 29.83 1010 10 16.09344 0 0
3:55 pm 15:55 Mostly Cloudy 66 19 53 11.8 63 63 N 16 26 29.83 1010 10 16.09344 0 0
4:15 pm 16:15 Partly Cloudy 67 19.2 53 11.7 62 62 N 13 20 29.85 1011 10 16.09344 0 0
4:35 pm 16:35 Mostly Cloudy with Nearby Thunderstorms 65 18.2 53 11.9 67 67 N 13 20 29.88 1012 10 16.09344 0 0
4:55 pm 16:55 Cloudy 64 17.7 53 11.7 68 68 N 15 24 29.91 1013 10 16.09344 0 0
5:15 pm 17:15 Cloudy 63 17 53 11.5 70 70 N 17 28 29.91 1013 10 16.09344 0 0
5:35 pm 17:35 Cloudy 63 17 53 11.7 71 71 N 15 24 29.91 1013 10 16.09344 0 0
5:55 pm 17:55 Cloudy 62 16.6 53 11.7 73 73 N 13 20 29.91 1013 10 16.09344 0 0
6:15 pm 18:15 Cloudy 61 16.2 53 11.7 75 75 N 15 24 29.91 1013 10 16.09344 0 0
6:35 pm 18:35 Cloudy 60 15.8 53 11.6 76 76 N 16 26 29.91 1013 10 16.09344 0 0
6:55 pm 18:55 Cloudy 60 15.4 53 11.6 78 78 N 15 24 29.97 1015 10 16.09344 0 0
7:15 pm 19:15 Cloudy 59 15.2 53 11.6 79 79 N 14 22 29.97 1015 10 16.09344 0 0
7:35 pm 19:35 Cloudy 59 15 54 12 82 82 N 16 26 29.97 1015 10 16.09344 0 0
7:55 pm 19:55 Cloudy 59 15 53 11.8 81 81 N 15 24 29.97 1015 10 16.09344 0 0
8:15 pm 20:15 Cloudy 59 14.9 53 11.9 82 82 N 13 20 29.97 1015 10 16.09344 0 0
8:35 pm 20:35 Cloudy 59 14.8 53 11.7 82 82 NNE 17 28 29.97 1015 10 16.09344 0 0
8:55 pm 20:55 Cloudy 59 15 53 11.7 81 81 NNE 16 26 30 1016 10 16.09344 0 0
9:15 pm 21:15 Cloudy 59 15 53 11.6 80 80 N 14 22 30 1016 10 16.09344 0 0
9:35 pm 21:35 Cloudy 59 14.9 53 11.6 81 81 N 18 30 30 1016 10 16.09344 0 0
9:55 pm 21:55 Cloudy 59 15 53 11.4 79 79 N 13 20 30.03 1017 10 16.09344 0 0
10:15 pm 22:15 Cloudy with Light Rain 59 15 52 11 77 77 NNE 15 24 30.03 1017 10 16.09344 0 0
10:35 pm 22:35 Cloudy 59 15 51 10.3 74 74 N 16 26 30.03 1017 10 16.09344 0 0
10:55 pm 22:55 Cloudy 59 15 50 10 72 72 NNE 13 20 30.03 1017 10 16.09344 0 0
11:15 pm 23:15 Cloudy 59 15 49 9.7 71 71 NNE 13 20 30.03 1017 10 16.09344 0 0
11:35 pm 23:35 Cloudy 59 15 49 9.5 70 70 NNE 15 24 30.03 1017 10 16.09344 0 0
11:55 pm 23:55 Cloudy 59 15.1 48 9 67 67 NNE 16 26 30.03 1017 10 16.09344 0 0

Powered by AerisWeather